Location: Creston
(40.9870°N, 81.8938°W)
Time: 17:20:42
(UTC+00:00)

SL-08 R/B - Pass Details

Date: 29 October 2020
Orbit: 946 x 994 km, 83.0° (Epoch: 23 November)

Event Time Altitude Azimuth Distance (km) Brightness Sun altitude
Rises 23:15:48 0° 356° (N) 3,652 7.4 -9.9°
Reaches altitude 10° 23:18:22 10° 0° (N) 2,695 6.7 -10.4°
Maximum altitude 23:24:26 58° 79° (E) 1,096 4.5 -11.5°
Drops below altitude 10° 23:30:24 10° 159° (SSE) 2,659 6.7 -12.6°
Sets 23:32:55 0° 163° (SSE) 3,599 7.4 -13.1°
